Find Starlink 11246

NORAD ID: 60932 Int'l Des: 2024-155 Owner: SPXS Country: US Constellation: starlink operational
LEOCIRCULAR

Live Position

Loading 3D Globe...

About Starlink 11246

Description loading...

Upcoming Passes

Passes for default location (London). Set your location on the main map for personalized predictions.

Altitude History

Loading altitude history...

Two-Line Element Set

1 60932U 24155J 26104.20729334 .00003816 00000-0 36327-4 0 9993
2 60932 53.1591 165.9547 0001022 71.2452 288.8677 15.69718384 93986
Epoch: Apr 14, 2026 • Age: 4 hours

Current Status

Altitude 365.8 km
Velocity 7.69 km/s
Sub-Earth Point -20.25°S, 25.02°E
Launch Date Aug 31, 2024
Age 1.6 years
Type internet

Technical Details

Classification Payload
Mass 960.00 kg
Dry Mass 910.00 kg
Total Mass 960.00 kg
Length 0.30 m
Diameter 4.10 m
Span 29.00 m
Shape Box + pan
Manufacturer SPXS
Bus Type Starlink V2MD
Phase Status In Orbit
Owner/State SPXS/US

Most Searched